Location: Tamazert
(32.6352°N, 5.2072°W)
Time: 21:56:55
(UTC+00:00)

FALCON 9 R/B - Pass Details

Date: 22 May 2022
Orbit: 298 x 9970 km, 34.5° (Epoch: 24 June)

Event Time Altitude Azimuth Distance (km) Brightness Sun altitude
Rises 01:24:12 0° 278° (W) 13,908 8.3 -34.7°
Reaches altitude 10° 01:39:56 10° 280° (W) 11,302 7.8 -33.5°
Maximum altitude 02:15:56 87° 196° (SSW) 2,388 4.3 -29.9°
Drops below altitude 10° 02:23:55 10° 108° (ESE) 3,121 5.3 -29.0°
Sets 02:25:36 0° 108° (ESE) 3,678 5.7 -28.8°
